Location: Diati
(11.8376°N, 2.5966°E)
Time: 17:46:39
(UTC+00:00)

Cosmos 1975 Rocket - Pass Details

Date: 21 September 2020
Orbit: 603 x 635 km, 82.5° (Epoch: 19 October)

Event Time Altitude Azimuth Distance (km) Brightness Sun altitude
Rises 18:29:09 0° 7° (N) 2,843 6.4 -11.4°
Reaches altitude 10° 18:31:28 10° 15° (NNE) 1,940 5.5 -11.9°
Maximum altitude 18:35:30 40° 85° (E) 897 3.4 -12.9°
Drops below altitude 10° 18:39:31 10° 155° (SSE) 1,947 5.3 -13.9°
Sets 18:41:50 0° 162° (SSE) 2,854 6.3 -14.5°
